METLOCID,DATE_TIME,AVG_NETRAD,STDDEV_NETRAD,MIN_NETRAD,MAX_NETRAD,N_NETRAD,N_COMMENTS
FRSM,12/21/10,-3.242592593,1.830001737,-5.6,1.3,54,1
FRSM,12/22/10,-2.508333333,2.090865682,-5.7,1.6,96,0
FRSM,12/23/10,-2.658333333,2.12908019,-5.8,1.6,96,0
FRSM,12/24/10,-2.433333333,1.951445708,-6,1.6,96,0
FRSM,12/25/10,-2.126041667,2.050891708,-7,0.4,96,0
FRSM,12/26/10,-1.284375,0.893523849,-3,1,96,0
FRSM,12/27/10,-1.863541667,1.513178585,-5.6,1.1,96,0
FRSM,12/28/10,-1.173958333,0.969236791,-4,0.4,96,0
FRSM,12/29/10,-2.158333333,1.579851203,-5.6,1,96,0
FRSM,12/30/10,-2.482291667,1.93309105,-6.1,1.2,96,0
FRSM,12/31/10,-2.505208333,1.922956594,-5.6,0.2,96,0
FRSM,1/1/11,-2.145833333,1.894919338,-6.4,0.4,96,0
FRSM,1/2/11,-0.825,0.797100007,-3.5,0.2,96,0
FRSM,1/3/11,-1.032291667,0.844984558,-2.9,0,96,0
FRSM,1/4/11,-0.921875,0.951807491,-3.9,1.3,96,0
FRSM,1/5/11,-1.771875,1.768359521,-5.7,1.8,96,0
FRSM,1/6/11,-0.983333333,1.357060807,-5.6,1.7,96,0
FRSM,1/7/11,-0.725,1.44222051,-4.3,1.5,96,0
FRSM,1/8/11,-1.060416667,1.441963513,-4.3,1.8,96,0
FRSM,1/9/11,-1.626041667,2.15969027,-8.3,1.9,96,0
FRSM,1/10/11,-1.775,1.657455247,-5,0,96,0
FRSM,1/11/11,-1.567708333,1.552417116,-6.2,1.3,96,0
FRSM,1/12/11,-1.277083333,1.328511567,-4.7,1.8,96,0
FRSM,1/13/11,-1.35,1.110144609,-3.8,0.7,96,0
FRSM,1/14/11,-1.901041667,1.619128732,-5.8,0,96,0
FRSM,1/15/11,-1.820833333,1.635456908,-5.7,0.5,96,0
FRSM,1/16/11,-2.254166667,1.869416834,-5,1,96,0
FRSM,1/17/11,-2.282291667,2.205399823,-5.6,1.3,96,0
FRSM,1/18/11,-1.952083333,1.934940726,-5.5,1.5,96,0
FRSM,1/19/11,-1,1.084823536,-5.7,0.2,96,0
FRSM,1/20/11,-1.072916667,0.862246657,-2.5,0.1,96,0
FRSM,1/21/11,-1.778125,1.661401002,-5.8,1.2,96,0
FRSM,1/22/11,-2.252083333,2.094854808,-5.5,1.3,96,0
FRSM,1/23/11,-0.7375,0.976055434,-4.4,1.4,96,0
FRSM,1/24/11,-2.177083333,2.176258458,-7.2,0.2,96,0
FRSM,1/25/11,-2.028125,1.942418629,-5.3,1.3,96,0
FRSM,1/26/11,-1.666666667,1.943446026,-6.4,1.3,96,0
FRSM,1/27/11,-1.558333333,1.497694134,-4.5,1,96,0
FRSM,1/28/11,-1.855208333,1.897303893,-4.9,1.3,96,0
FRSM,1/29/11,-1.758333333,2.029346105,-5.6,1.2,96,0
FRSM,1/30/11,-0.433333333,0.398858019,-1.3,0.2,96,0
FRSM,1/31/11,-0.760416667,1.306943334,-3.8,1,96,0
FRSM,2/1/11,-1.289583333,1.698759868,-4.5,1.5,96,0
FRSM,2/2/11,-1.635416667,1.905724295,-4.7,1.5,96,0
FRSM,2/3/11,0.125,0.07677719,-0.1,0.3,96,0
FRSM,2/4/11,-0.7375,1.247080802,-4.6,1.2,96,0
FRSM,2/5/11,-1.183333333,1.810767018,-4.1,1.3,96,0
FRSM,2/6/11,-1.165625,1.60235538,-3.8,1.3,96,0
FRSM,2/7/11,-1.290625,1.808231362,-4.4,1.3,96,0
FRSM,2/8/11,-0.992708333,1.479135223,-3.9,0.7,96,0
FRSM,2/9/11,-1.554166667,2.182799587,-6.6,1,96,0
FRSM,2/10/11,-1.219791667,1.643335491,-4.3,1,96,0
FRSM,2/11/11,-0.097916667,0.483404411,-0.8,0.9,96,0
FRSM,2/12/11,-0.491666667,0.74320312,-2.9,0.8,96,0
FRSM,2/13/11,-0.365625,0.827148319,-1.5,1.1,96,0
FRSM,2/14/11,-0.979166667,1.648917774,-4.1,1.2,96,0
FRSM,2/15/11,-0.847916667,1.41272258,-3.8,1,96,0
FRSM,2/16/11,-0.730208333,1.385117878,-3.7,1,96,0
FRSM,2/17/11,-0.788541667,1.259228652,-3.3,0.9,96,0
FRSM,2/18/11,-0.548958333,0.909597342,-3.5,0.4,96,0
FRSM,2/19/11,-1.013541667,1.301789844,-3.4,0.6,96,0
FRSM,2/20/11,-0.910416667,1.503573229,-3.6,0.9,96,0
FRSM,2/21/11,-0.829166667,1.489607272,-3.5,1,96,0
FRSM,2/22/11,0.0875,0.303401766,-0.6,0.8,96,0
FRSM,2/23/11,-0.313541667,0.367815684,-1.4,0.1,96,0
FRSM,2/24/11,-0.330208333,0.951245144,-2.8,0.8,96,0
FRSM,2/25/11,-0.346875,1.196745862,-2.5,1,96,0
FRSM,2/26/11,-0.327083333,1.124416028,-2.4,0.9,96,0
FRSM,2/27/11,-0.265625,1.108420225,-2.7,1,96,0
FRSM,2/28/11,-0.241666667,1.076120387,-2.6,1,96,0
FRSM,3/1/11,0.115625,0.387523344,-0.5,0.9,96,0
FRSM,3/2/11,0.113541667,0.788685754,-2,1,96,0
FRSM,3/3/11,-0.13125,1.009878836,-2.1,1,96,0
FRSM,3/4/11,0.041666667,0.785482308,-1.8,0.9,96,0
FRSM,3/5/11,-0.033333333,0.841635834,-1.9,0.8,96,0
FRSM,3/6/11,-0.046875,0.914555184,-2,0.8,96,0
FRSM,3/7/11,0.01875,0.588005102,-1.2,0.8,96,0
FRSM,3/8/11,-0.091666667,0.780508157,-1.8,0.9,96,0
FRSM,3/9/11,0.071875,0.915561734,-1.7,1,96,0
FRSM,3/10/11,-0.004166667,0.84079119,-1.8,0.8,96,0
FRSM,3/11/11,0.115625,0.472246172,-0.9,0.8,96,0
FRSM,3/12/11,-0.066666667,0.837624042,-1.8,0.9,96,0
FRSM,3/13/11,0.13125,0.644378526,-1.2,0.9,96,0
FRSM,3/14/11,0.134375,0.855548839,-1.6,0.9,96,0
FRSM,3/15/11,0.13125,0.841591537,-1.6,0.9,96,0
FRSM,3/16/11,0.148958333,0.844797676,-1.6,0.9,96,0
FRSM,3/17/11,0.278125,0.787828879,-1.4,1.1,96,0
FRSM,3/18/11,0.247916667,0.800128827,-1.4,1.1,96,0
FRSM,3/19/11,0.236458333,0.696777514,-1.4,0.9,96,0
FRSM,3/20/11,0.077083333,0.629365456,-1.2,0.8,96,0
FRSM,3/21/11,0.111458333,0.468563267,-0.8,0.9,96,0
FRSM,3/22/11,0.065625,0.285741188,-1.1,0.6,96,0
FRSM,3/23/11,0.1,0.20976177,-0.4,0.6,96,0
FRSM,3/24/11,0.195833333,0.341796082,-0.5,0.7,96,0
FRSM,3/25/11,0.417708333,0.613015805,-0.9,1,96,0
FRSM,3/26/11,0.454166667,0.530524401,-0.8,1.1,96,0
FRSM,3/27/11,0.425,0.470609907,-0.6,1,96,0
FRSM,3/28/11,0.405208333,0.497862757,-0.7,0.9,96,0
FRSM,3/29/11,0.357291667,0.47055282,-0.7,0.8,96,0
FRSM,3/30/11,0.490625,0.527771507,-0.6,1,96,0
FRSM,3/31/11,0.446875,0.412170921,-0.6,0.8,96,0
FRSM,4/1/11,0.4625,0.330947603,-0.3,0.9,96,0
FRSM,4/2/11,0.546875,0.390937638,-0.4,0.9,96,0
FRSM,4/3/11,0.527083333,0.334500151,-0.3,0.9,96,0
FRSM,4/4/11,0.447916667,0.356585907,-0.4,0.9,96,0
FRSM,4/5/11,0.710416667,0.164463508,0.3,1,96,0
FRSM,4/6/11,0.290625,0.198985916,0.1,0.7,96,0
FRSM,4/7/11,0.455208333,0.245322469,0,0.9,96,0
FRSM,4/8/11,0.771875,0.231108598,0.1,1,96,0
FRSM,4/9/11,0.657291667,0.149908598,0.2,0.9,96,0
FRSM,4/10/11,0.185416667,0.199989035,-0.1,0.7,96,0
FRSM,4/11/11,0.172916667,0.186083833,0,0.7,96,0
FRSM,4/12/11,0.690625,0.11523717,0.3,1,96,0
FRSM,4/13/11,0.744791667,0.084442184,0.4,0.9,96,0
FRSM,4/14/11,0.047916667,0.136866563,-0.1,0.7,96,0
FRSM,4/15/11,0.09375,0.090393875,0,0.4,96,0
FRSM,4/16/11,0.316666667,0.278214861,0,0.8,96,0
FRSM,4/17/11,0.802083333,0.079444342,0.7,1.1,96,0
FRSM,4/18/11,0.846875,0.136846533,0.5,1.1,96,0
FRSM,4/19/11,0.76875,0.070056368,0.6,0.9,96,0
FRSM,4/20/11,0.476041667,0.201961326,0.2,0.8,96,0
FRSM,4/21/11,0.78125,0.1126826,0.6,1.1,96,0
FRSM,4/22/11,0.707291667,0.089730347,0.5,0.9,96,0
FRSM,4/23/11,0.680208333,0.05915153,0.5,0.8,96,0
FRSM,4/24/11,0.705208333,0.067073866,0.6,0.9,96,0
FRSM,4/25/11,0.642708333,0.07217638,0.5,0.8,96,0
FRSM,4/26/11,0.494791667,0.17312593,0,0.8,96,0
FRSM,4/27/11,0.770833333,0.092811826,0.6,1,96,0
FRSM,4/28/11,0.295833333,0.262745291,0,0.8,96,0
FRSM,4/29/11,0.540625,0.206003641,0.2,0.8,96,0
FRSM,4/30/11,0.7,0.113323013,0.4,0.9,96,0
FRSM,5/1/11,0.788541667,0.079299289,0.5,0.9,96,0
FRSM,5/2/11,0.704166667,0.145034781,0.3,1,96,0
FRSM,5/3/11,0.503125,0.268113536,0,0.9,96,0
FRSM,5/4/11,0.752083333,0.090587749,0.5,0.9,96,0
FRSM,5/5/11,0.742708333,0.07217638,0.6,0.9,96,0
FRSM,5/6/11,0.66875,0.08980974,0.4,0.8,96,0
FRSM,5/7/11,0.765625,0.104456614,0.4,1,96,0
FRSM,5/8/11,0.648958333,0.133767112,0.1,0.9,96,0
FRSM,5/9/11,0.5375,0.188204816,0.2,0.8,96,0
FRSM,5/10/11,0.313541667,0.24692628,0,0.9,96,0
FRSM,5/11/11,0.705208333,0.071627386,0.5,0.8,96,0
FRSM,5/12/11,0.826041667,0.110734193,0.6,1.1,96,0
FRSM,5/13/11,0.646875,0.174085959,0.3,0.9,96,0
FRSM,5/14/11,0.460416667,0.285243817,0.1,0.9,96,0
FRSM,5/15/11,0.810416667,0.090004873,0.6,0.9,96,0
FRSM,5/16/11,0.708333333,0.076318814,0.5,0.8,96,0
FRSM,5/17/11,0.732291667,0.068816754,0.5,0.8,96,0
FRSM,5/18/11,0.263541667,0.203712797,0,0.7,96,0
FRSM,5/19/11,0.566666667,0.196638416,0.2,0.8,96,0
FRSM,5/20/11,0.240625,0.115692992,0.1,0.6,96,0
FRSM,5/21/11,0.245833333,0.158224801,0.1,0.6,96,0
FRSM,5/22/11,0.59375,0.168468332,0.2,0.9,96,0
FRSM,5/23/11,0.627083333,0.25566391,0,1,96,0
FRSM,5/24/11,0.7375,0.086145532,0.5,0.9,96,0
FRSM,5/25/11,0.683333333,0.117577895,0.3,0.8,96,0
FRSM,5/26/11,0.666666667,0.080350111,0.4,0.8,96,0
FRSM,5/27/11,0.720833333,0.135271008,0.2,0.9,96,0
FRSM,5/28/11,0.828125,0.090266419,0.6,1,96,0
FRSM,5/29/11,0.684375,0.067008444,0.5,0.9,96,0
FRSM,5/30/11,0.341666667,0.266227709,0,0.8,96,0
FRSM,5/31/11,0.339583333,0.223125722,0,0.7,96,0
FRSM,6/1/11,0.380208333,0.167721443,0.1,0.8,96,0
FRSM,6/2/11,0.325,0.129777137,0.1,0.6,96,0
FRSM,6/3/11,0.380208333,0.192829235,0.1,0.9,96,0
FRSM,6/4/11,0.669791667,0.116184782,0.2,0.9,96,0
FRSM,6/5/11,0.708333333,0.08665317,0.5,0.8,96,0
FRSM,6/6/11,0.683333333,0.137394297,0.4,1,96,0
FRSM,6/7/11,0.713541667,0.156016053,0.3,1,96,0
FRSM,6/8/11,0.785416667,0.052272901,0.7,1,96,0
FRSM,6/9/11,0.273958333,0.186516426,0,0.8,96,0
FRSM,6/10/11,0.3375,0.119868349,0.2,0.6,96,0
FRSM,6/11/11,0.534375,0.088052765,0.3,0.7,96,0
FRSM,6/12/11,0.539583333,0.228716863,0.1,0.8,96,0
FRSM,6/13/11,0.240625,0.135784756,0.1,0.5,96,0
FRSM,6/14/11,0.441666667,0.185623652,0.2,0.8,96,0
FRSM,6/15/11,0.659375,0.120156148,0.3,0.8,96,0
FRSM,6/16/11,0.735416667,0.071051007,0.6,0.8,96,0
FRSM,6/17/11,0.7125,0.077119183,0.6,0.8,96,0
FRSM,6/18/11,0.876041667,0.075036541,0.7,1.1,96,0
FRSM,6/19/11,0.419791667,0.261018165,0,0.8,96,0
FRSM,6/20/11,0.417708333,0.188620918,0,0.8,96,0
FRSM,6/21/11,0.451041667,0.321507892,0.1,1,96,0
FRSM,6/22/11,0.752083333,0.112370783,0.5,1,96,0
FRSM,6/23/11,0.457291667,0.221831986,0.1,0.8,96,0
FRSM,6/24/11,0.783333333,0.08665317,0.5,0.9,96,0
FRSM,6/25/11,0.855208333,0.1003885,0.6,1,96,0
FRSM,6/26/11,0.730208333,0.082231754,0.5,0.9,96,0
FRSM,6/27/11,0.553125,0.098358234,0.4,0.7,96,0
FRSM,6/28/11,0.663541667,0.119753951,0.4,0.9,96,0
FRSM,6/29/11,0.769791667,0.072721229,0.6,1,96,0
FRSM,6/30/11,0.710416667,0.065661279,0.5,0.9,96,0
FRSM,7/1/11,0.839583333,0.074662985,0.7,1,96,0
FRSM,7/2/11,0.791666667,0.093658581,0.6,1,96,0
FRSM,7/3/11,0.725,0.138412047,0.4,1,96,0
FRSM,7/4/11,0.2,0.104629673,0.1,0.4,96,0
FRSM,7/5/11,0.675,0.172900945,0.1,0.9,96,0
FRSM,7/6/11,0.8125,0.097602847,0.5,1,96,0
FRSM,7/7/11,0.705208333,0.058704957,0.5,0.8,96,0
FRSM,7/8/11,0.734375,0.051967854,0.6,0.8,96,0
FRSM,7/9/11,0.659375,0.136557776,0.2,0.8,96,0
FRSM,7/10/11,0.427083333,0.301043507,0,0.8,96,0
FRSM,7/11/11,0.792708333,0.039054056,0.7,0.9,96,0
FRSM,7/12/11,0.855208333,0.072358452,0.7,1.1,96,0
FRSM,7/13/11,0.723958333,0.144909984,0.4,1,96,0
FRSM,7/14/11,0.477083333,0.139532427,0.1,0.7,96,0
FRSM,7/15/11,0.452083333,0.237078342,0,0.9,96,0
FRSM,7/16/11,0.082291667,0.139920874,-0.1,0.5,96,0
FRSM,7/17/11,0.321875,0.310247143,0,0.8,96,0
FRSM,7/18/11,0.163541667,0.056419093,0.1,0.3,96,0
FRSM,7/19/11,0.165625,0.066218339,0.1,0.3,96,0
FRSM,7/20/11,0.317708333,0.165430724,0.1,0.7,96,0
FRSM,7/21/11,0.709375,0.08344948,0.4,0.9,96,0
FRSM,7/22/11,0.488541667,0.248731431,0.1,0.9,96,0
FRSM,7/23/11,0.860416667,0.070306347,0.6,1,96,0
FRSM,7/24/11,0.622916667,0.176205124,0.3,1.1,96,0
FRSM,7/25/11,0.746875,0.130547934,0.3,0.9,96,0
FRSM,7/26/11,0.739583333,0.10709481,0.4,1,96,0
FRSM,7/27/11,0.770833333,0.095053078,0.5,1,96,0
FRSM,7/28/11,0.235416667,0.087031956,0.1,0.5,96,0
FRSM,7/29/11,0.555208333,0.132878886,0.3,0.7,96,0
FRSM,7/30/11,0.69375,0.080540934,0.5,0.8,96,0
FRSM,7/31/11,0.38125,0.347415268,-0.1,0.9,96,0
FRSM,8/1/11,0.1,0.072547625,0,0.3,96,0
FRSM,8/2/11,0.117708333,0.120520618,0,0.4,96,0
FRSM,8/3/11,0.609375,0.275328751,0.1,0.9,96,0
FRSM,8/4/11,0.864583333,0.098386099,0.7,1,96,0
FRSM,8/5/11,0.7375,0.129167374,0.5,1.1,96,0
FRSM,8/6/11,0.761458333,0.094445519,0.6,1,96,0
FRSM,8/7/11,0.753125,0.101518082,0.4,1,96,0
FRSM,8/8/11,0.836458333,0.087201873,0.7,1,96,0
FRSM,8/9/11,0.76875,0.075828754,0.6,1,96,0
FRSM,8/10/11,0.735416667,0.054249262,0.6,0.9,96,0
FRSM,8/11/11,0.767708333,0.062399041,0.7,0.9,96,0
FRSM,8/12/11,0.9375,0.084914818,0.8,1.1,96,0
FRSM,8/13/11,0.663541667,0.34400728,-0.1,1,96,0
FRSM,8/14/11,0.440625,0.307649194,0,0.9,96,0
FRSM,8/15/11,0.891666667,0.114860709,0.6,1.1,96,0
FRSM,8/16/11,0.796875,0.168243636,0.4,1.1,96,0
FRSM,8/17/11,0.827083333,0.11650992,0.6,1,96,0
FRSM,8/18/11,0.722916667,0.147597723,0.5,1.1,96,0
FRSM,8/19/11,0.75,0.063245553,0.6,0.9,96,0
FRSM,8/20/11,0.661458333,0.063858053,0.5,0.8,96,0
FRSM,8/21/11,0.576041667,0.136686188,0.2,0.9,96,0
FRSM,8/22/11,0.466666667,0.193943381,0.2,0.8,96,0
FRSM,8/23/11,0.4875,0.311617174,0,0.8,96,0
FRSM,8/24/11,0.133333333,0.102255271,0,0.6,96,0
FRSM,8/25/11,0.367708333,0.213489697,0.1,0.8,96,0
FRSM,8/26/11,0.530208333,0.177775608,0.2,0.9,96,0
FRSM,8/27/11,0.646875,0.112346386,0.3,0.8,96,0
FRSM,8/28/11,0.323958333,0.275201282,-0.1,0.8,96,0
FRSM,8/29/11,0.283333333,0.154692678,0,0.6,96,0
FRSM,8/30/11,0.308333333,0.133508657,0.1,0.7,96,0
FRSM,8/31/11,0.229166667,0.111371041,0,0.5,96,0
FRSM,9/1/11,0.457291667,0.203001059,0.1,0.9,96,0
FRSM,9/2/11,0.74375,0.12209789,0.4,1,96,0
FRSM,9/3/11,0.801041667,0.179176356,0.3,1.2,96,0
FRSM,9/4/11,0.798958333,0.170753619,0.3,1.1,96,0
FRSM,9/5/11,0.748958333,0.228032681,0.1,1,96,0
FRSM,9/6/11,0.722916667,0.235071844,0,1,96,0
FRSM,9/7/11,0.432291667,0.335761442,-0.5,1,96,0
FRSM,9/8/11,0.180208333,0.270134388,-0.3,0.7,96,0
FRSM,9/9/11,0.258333333,0.338624669,-0.2,0.8,96,0
FRSM,9/10/11,-0.003125,0.147579149,-0.4,0.2,96,0
FRSM,9/11/11,0.05,0.161571232,-0.3,0.3,96,0
FRSM,9/12/11,0.271875,0.228359424,-0.1,0.7,96,0
FRSM,9/13/11,0.323958333,0.360918358,-0.4,0.8,96,0
FRSM,9/14/11,0.560416667,0.428333163,-0.5,1.1,96,0
FRSM,9/15/11,0.552083333,0.409101497,-0.9,1.1,96,0
FRSM,9/16/11,0.491666667,0.502973614,-0.6,1.1,96,0
FRSM,9/17/11,0.488541667,0.520297444,-0.6,1.1,96,0
FRSM,9/18/11,0.490625,0.588499989,-0.7,1.2,96,0
FRSM,9/19/11,0.408333333,0.56525107,-0.8,1,96,0
FRSM,9/20/11,0.34375,0.582519482,-0.9,0.9,96,0
FRSM,9/21/11,0.351041667,0.546567238,-0.9,0.9,96,0
FRSM,9/22/11,0.278125,0.631989861,-1.1,1,96,0
FRSM,9/23/11,0.282291667,0.547721557,-1.2,0.9,96,0
FRSM,9/24/11,-0.06875,0.740030227,-1.9,0.8,96,0
FRSM,9/25/11,0.071875,0.735663413,-1.4,0.9,96,0
FRSM,9/26/11,0.054166667,0.759351062,-1.5,0.8,96,0
FRSM,9/27/11,-0.00625,0.469672338,-1,0.8,96,0
FRSM,9/28/11,0.220833333,0.689609602,-1.7,0.9,96,0
FRSM,9/29/11,0.017708333,0.74508845,-1.8,0.8,96,0
FRSM,9/30/11,-0.048958333,0.871899897,-1.9,0.8,96,0
FRSM,10/1/11,-0.065625,0.808875519,-1.8,0.8,96,0
FRSM,10/2/11,-0.148958333,0.900408655,-2.2,0.8,96,0
FRSM,10/3/11,-0.0125,0.531383497,-1.6,0.7,96,0
FRSM,10/4/11,-0.105208333,1.041493845,-2,0.9,96,0
FRSM,10/5/11,-0.266666667,1.106599026,-2.1,0.9,96,0
FRSM,10/6/11,-0.173958333,0.711002967,-1.6,0.9,96,0
FRSM,10/7/11,-0.238541667,0.871341349,-2.2,0.9,96,0
FRSM,10/8/11,-0.160416667,1.135501667,-2.3,1.1,96,0
FRSM,10/9/11,-0.21875,1.135949638,-2.7,1.2,96,0
FRSM,10/10/11,-0.321875,0.99273181,-2.4,0.9,96,0
FRSM,10/11/11,-0.165625,0.488570013,-1,0.8,96,0
FRSM,10/12/11,0.169791667,0.202676715,-0.4,0.8,96,0
FRSM,10/13/11,-0.229166667,0.966591044,-2.3,0.9,96,0
FRSM,10/14/11,-0.386458333,1.195396414,-2.8,1.1,96,0
FRSM,10/15/11,-0.436458333,1.157048859,-2.7,0.9,96,0
FRSM,10/16/11,-0.5375,1.281713491,-2.8,0.9,96,0
FRSM,10/17/11,-0.457291667,1.238568341,-2.6,1,96,0
FRSM,10/18/11,-0.514583333,1.28144484,-2.6,1,96,0
FRSM,10/19/11,-0.676041667,1.386684405,-3,1.1,96,0
FRSM,10/20/11,-0.782291667,1.523223368,-3.4,1,96,0
FRSM,10/21/11,-0.505208333,0.959645745,-2.7,0.8,96,0
FRSM,10/22/11,-0.747916667,1.402402387,-3.2,0.9,96,0
FRSM,10/23/11,-0.880208333,1.452012744,-3.2,1,96,0
FRSM,10/24/11,-0.91875,1.495207255,-3.4,0.9,96,0
FRSM,10/25/11,-0.426041667,0.819145227,-1.9,0.8,96,0
FRSM,10/26/11,-0.521875,0.789697227,-1.8,0.8,96,0
FRSM,10/27/11,-0.696875,0.998678403,-2.6,0.8,96,0
FRSM,10/28/11,-1.019791667,1.686142892,-3.8,1.1,96,0
FRSM,10/29/11,-1.195833333,1.725713684,-4.2,1.1,96,0
FRSM,10/30/11,-1.117708333,1.748743597,-4,1,96,0
FRSM,10/31/11,-0.973958333,1.249273034,-3.3,0.8,96,0
FRSM,11/1/11,-0.869791667,0.884381412,-2.5,0.5,96,0
FRSM,11/2/11,-1.139583333,1.603514506,-4.2,0.7,96,0
FRSM,11/3/11,-1.315625,1.780853026,-4.2,1.2,96,0
FRSM,11/4/11,-1.4375,1.926941946,-4.5,1.4,96,0
FRSM,11/5/11,-1.392708333,1.747192924,-4.1,1.3,96,0
FRSM,11/6/11,-1.028125,1.251752719,-4.5,0.6,96,0
FRSM,11/7/11,-1.484375,1.575692204,-3.9,1,96,0
FRSM,11/8/11,-1.621875,1.879260948,-4.6,1.3,96,0
FRSM,11/9/11,-1.454166667,1.756846257,-4.5,1.2,96,0
FRSM,11/10/11,-1.632291667,1.757599726,-4.4,0.7,96,0
FRSM,11/11/11,-1.629166667,1.678653387,-4.4,0.8,96,0
FRSM,11/12/11,-1.192708333,1.158969124,-3.7,0.4,96,0
FRSM,11/13/11,-1.638541667,1.778430402,-4.8,1.3,96,0
FRSM,11/14/11,-1.85625,2.045627558,-5.2,1.4,96,0
FRSM,11/15/11,-1.866666667,2.05522014,-5.1,1.4,96,0
FRSM,11/16/11,-1.919791667,2.114342988,-5.2,1.6,96,0
FRSM,11/17/11,-1.621875,1.818571048,-4.5,1.4,96,0
FRSM,11/18/11,-1.797916667,1.828717075,-4.7,1.2,96,0
FRSM,11/19/11,-1.780208333,1.632280922,-4.4,1,96,0
FRSM,11/20/11,-1.475,1.30028337,-4.8,-0.1,96,0
FRSM,11/21/11,-1.744791667,1.657764493,-5.2,0.5,96,0
FRSM,11/22/11,-1.851041667,1.55170499,-4.4,1,96,0
FRSM,11/23/11,-1.596875,1.479932653,-5.1,0.8,96,0
FRSM,11/24/11,-1.741666667,1.55973457,-4.9,0.2,96,0
FRSM,11/25/11,-1.2625,1.147101611,-4.5,0.3,96,0
FRSM,11/26/11,-2.10625,1.754141715,-6.1,0.8,96,0
FRSM,11/27/11,-1.93125,1.871690061,-5.3,1.2,96,0
FRSM,11/28/11,-2.398958333,1.957683636,-5.4,1.5,96,0
FRSM,11/29/11,-2.244791667,2.077137189,-5.5,1.6,96,0
FRSM,11/30/11,-2.005208333,1.714665522,-4.8,1.5,96,0
FRSM,12/1/11,-2.273958333,1.946616216,-5.2,1.3,96,0
FRSM,12/2/11,-2.325,1.879585621,-5.5,1.6,96,0
FRSM,12/3/11,-2.058333333,1.763409775,-5.7,1.4,96,0
FRSM,12/4/11,-2.376041667,1.822071972,-5.8,1,96,0
FRSM,12/5/11,-2.271875,1.886221683,-5.6,1.1,96,0
FRSM,12/6/11,-2.535416667,2.090780724,-6,1.2,96,0
FRSM,12/7/11,-1.269791667,1.542937717,-6.3,1.3,96,0
FRSM,12/8/11,-1.334375,1.254870773,-4.1,1.9,96,0
FRSM,12/9/11,-2.188541667,1.623243653,-6.3,-0.2,96,0
FRSM,12/10/11,-2.594791667,2.088684794,-6.8,0.2,96,0
FRSM,12/11/11,-2.275,1.739146796,-5.8,0.1,96,0
FRSM,12/12/11,-0.990625,0.649870939,-2.3,-0.1,96,0
FRSM,12/13/11,-0.701041667,0.485905512,-2,-0.1,96,0
FRSM,12/14/11,-0.65,0.773950903,-3.3,0.1,46,0
FRSM,1/27/12,-1.574,1.219369191,-4.6,0.7,50,0
FRSM,1/28/12,-1.5,1.537256613,-4.2,0.6,96,0
FRSM,1/29/12,-1.725,1.811890551,-4.6,1.2,96,0
FRSM,1/30/12,-1.319791667,1.62653133,-4.6,1.2,96,0
FRSM,1/31/12,-0.951041667,1.164564051,-3.9,1,96,0
FRSM,2/1/12,-1.566666667,2.064214731,-5.2,1,96,0
FRSM,2/2/12,-0.9125,1.013721648,-2.6,0.7,96,0
FRSM,2/3/12,-1.455208333,1.455723354,-4.6,0.4,96,0
FRSM,2/4/12,-1.553125,1.754750132,-4.8,0.9,96,0
FRSM,2/5/12,-0.780208333,1.061143355,-2.7,1,96,0
FRSM,2/6/12,-1.18125,1.138726204,-4.1,0.4,96,0
FRSM,2/7/12,-1.516666667,1.728502039,-4.5,0.6,96,0
FRSM,2/8/12,-1.423958333,1.709831927,-4.5,1.2,96,0
FRSM,2/9/12,-1.336458333,1.800591703,-4.3,1.2,96,0
FRSM,2/10/12,-1.183333333,1.705327051,-3.6,1.3,96,0
FRSM,2/11/12,-1.267708333,1.896173143,-4.3,1.2,96,0
FRSM,2/12/12,-0.321875,0.777337307,-1.4,1.1,96,0
FRSM,2/13/12,0.017708333,0.154915795,-0.3,0.4,96,0
FRSM,2/14/12,-0.271875,0.970914179,-3,1.2,96,0
FRSM,2/15/12,-0.659375,1.365251326,-2.6,1.2,96,0
FRSM,2/16/12,-0.955208333,1.685971205,-3.7,1.2,96,0
FRSM,2/17/12,-0.780208333,1.508964078,-3.3,1.2,96,0
FRSM,2/18/12,-0.916666667,1.505265612,-3.4,1,96,0
FRSM,2/19/12,-0.1875,0.212379997,-0.9,0.1,96,0
FRSM,2/20/12,-0.10625,0.539553909,-1.5,0.6,96,0
FRSM,2/21/12,-0.091666667,0.850593188,-2.1,1.1,96,0
FRSM,2/22/12,-0.338541667,1.110558872,-2.4,1,96,0
FRSM,2/23/12,-0.5125,1.262182738,-2.7,1.1,96,0
FRSM,2/24/12,-0.471875,1.38941132,-2.9,1.1,96,0
FRSM,2/25/12,-0.509375,1.339212504,-2.9,1.1,96,0
FRSM,2/26/12,-0.1125,0.226297429,-0.5,0.3,96,0
FRSM,2/27/12,-0.398958333,0.942616157,-2.2,1,96,0
FRSM,2/28/12,-0.295833333,1.080927152,-2.5,0.8,96,0
FRSM,2/29/12,-0.41875,1.075107094,-2.6,1,96,0
FRSM,3/1/12,-0.334375,1.210117708,-2.6,1.1,96,0
FRSM,3/2/12,-0.30625,1.117969259,-2.4,0.9,96,0
FRSM,3/3/12,-0.333333333,1.190901177,-2.5,0.9,96,0
FRSM,3/4/12,-0.290625,1.134444276,-2.3,0.9,96,0
FRSM,3/5/12,-0.209375,1.051222659,-2.3,0.8,96,0
FRSM,3/6/12,-0.173958333,1.069209722,-2.2,0.9,96,0
FRSM,3/7/12,-0.163541667,1.139355292,-2.3,0.9,96,0
FRSM,3/8/12,-0.026041667,0.897979579,-1.9,0.9,96,0
FRSM,3/9/12,-0.139583333,1.102387759,-2.1,1,96,0
FRSM,3/10/12,-0.180208333,1.07631142,-2.9,0.9,96,0
FRSM,3/11/12,0.1125,0.609443232,-1.9,0.8,96,0
FRSM,3/12/12,0.05,0.842677437,-1.5,0.9,96,0
FRSM,3/13/12,0.071875,0.80114433,-1.7,0.9,96,0
FRSM,3/14/12,-0.067708333,0.764817803,-1.8,0.9,96,0
FRSM,3/15/12,0.060416667,0.880248669,-1.7,1,96,0
FRSM,3/16/12,0.148958333,0.843051449,-1.5,1,96,0
FRSM,3/17/12,0.235416667,0.551548856,-0.8,0.8,96,0
FRSM,3/18/12,0.148958333,0.762957513,-1.4,1,96,0
FRSM,3/19/12,0.229166667,0.789259035,-1.3,1,96,0
FRSM,3/20/12,0.165625,0.740814363,-1.4,0.9,96,0
FRSM,3/21/12,0.227083333,0.713697439,-1.2,0.9,96,0
FRSM,3/22/12,0.319791667,0.664057669,-1,0.9,96,0
FRSM,3/23/12,0.298958333,0.524854825,-0.8,0.9,96,0
FRSM,3/24/12,0.334375,0.489646086,-0.9,0.9,96,0
FRSM,3/25/12,0.354166667,0.630775073,-1,0.9,96,0
FRSM,3/26/12,0.126041667,0.492735606,-0.7,0.9,96,0
FRSM,3/27/12,0.088541667,0.270231788,-0.7,0.6,96,0
FRSM,3/28/12,0.307291667,0.489950544,-0.9,0.8,96,0
FRSM,3/29/12,0.297916667,0.302960538,-0.6,0.7,96,0
FRSM,3/30/12,0.28125,0.286287489,-0.6,0.7,96,0
FRSM,3/31/12,0.386458333,0.34962229,-0.4,0.8,96,0
FRSM,4/1/12,0.486458333,0.247777401,-0.7,0.7,96,0
FRSM,4/2/12,0.588541667,0.35684872,-0.3,0.9,96,0
FRSM,4/3/12,0.636458333,0.356627416,-0.3,1,96,0
FRSM,4/4/12,0.671875,0.326610383,-0.2,1,96,0
FRSM,4/5/12,0.595833333,0.315199742,-0.2,1,96,0
FRSM,4/6/12,0.473958333,0.360188486,-0.6,0.9,96,0
FRSM,4/7/12,0.573958333,0.219206604,-0.1,0.8,96,0
FRSM,4/8/12,0.602083333,0.188053277,0,0.8,96,0
FRSM,4/9/12,0.65,0.14509525,0.1,0.9,96,0
FRSM,4/10/12,0.733333333,0.119354992,0.3,1,96,0
FRSM,4/11/12,0.565625,0.214146101,-0.1,0.8,96,0
FRSM,4/12/12,0.396875,0.197592417,0,0.7,96,0
FRSM,4/13/12,0.848958333,0.083344298,0.7,1.1,96,0
FRSM,4/14/12,0.778125,0.110694577,0.6,0.9,96,0
FRSM,4/15/12,0.625,0.158280231,0.1,0.8,96,0
FRSM,4/16/12,0.555208333,0.203065865,0.1,0.8,96,0
FRSM,4/17/12,0.632291667,0.136493525,0,0.8,96,0
FRSM,4/18/12,0.636458333,0.195270281,0,0.8,96,0
FRSM,4/19/12,0.548958333,0.144364153,0.3,0.9,96,0
FRSM,4/20/12,0.720833333,0.107523967,0.4,0.9,96,0
FRSM,4/21/12,0.769791667,0.08598628,0.6,0.9,96,0
FRSM,4/22/12,0.402083333,0.21372839,0,0.8,96,0
FRSM,4/23/12,0.551041667,0.20467936,0.1,0.9,96,0
FRSM,4/24/12,0.55,0.321182027,-0.1,1,96,0
FRSM,4/25/12,0.241666667,0.064345558,0.1,0.4,96,0
FRSM,4/26/12,0.470833333,0.243620355,0.2,0.8,96,0
FRSM,4/27/12,0.592708333,0.166224193,0.2,0.9,96,0
FRSM,4/28/12,0.646875,0.139135016,0.4,0.9,96,0
FRSM,4/29/12,0.782291667,0.05025156,0.6,0.9,96,0
FRSM,4/30/12,0.71875,0.07299964,0.5,0.9,96,0
FRSM,5/1/12,0.669791667,0.256338506,0,1.1,96,0
FRSM,5/2/12,0.1875,0.187644681,-0.1,0.5,96,0
FRSM,5/3/12,0.438541667,0.157192334,0.1,0.8,96,0
FRSM,5/4/12,0.383333333,0.144853223,0.1,0.6,96,0
FRSM,5/5/12,0.33125,0.140159683,0.2,0.7,96,0
FRSM,5/6/12,0.433333333,0.178689184,0.1,0.8,96,0
FRSM,5/7/12,0.558333333,0.196102372,0.1,0.8,96,0
FRSM,5/8/12,0.372916667,0.148309184,0.2,0.7,96,0
FRSM,5/9/12,0.69375,0.154791881,0.4,1,96,0
FRSM,5/10/12,0.725,0.152177182,0.3,1,96,0
FRSM,5/11/12,0.589583333,0.165102307,0.2,0.8,96,0
FRSM,5/12/12,0.591666667,0.265832027,0.2,1,96,0
FRSM,5/13/12,0.857291667,0.104372603,0.7,1.1,96,0
FRSM,5/14/12,0.639583333,0.231461793,0.1,1,96,0
FRSM,5/15/12,0.280208333,0.237805667,0,0.8,96,0
FRSM,5/16/12,0.584375,0.18656345,0.1,0.9,96,0
FRSM,5/17/12,0.395833333,0.211718118,0.1,0.9,96,0
FRSM,5/18/12,0.221875,0.103824878,0.1,0.6,96,0
FRSM,5/19/12,0.380208333,0.31038848,0,0.9,96,0
FRSM,5/20/12,0.652083333,0.231689069,0.1,0.9,96,0
FRSM,5/21/12,0.104166667,0.202050888,0,0.7,96,0
FRSM,5/22/12,0.202083333,0.190279112,0,0.6,96,0
FRSM,5/23/12,0.570833333,0.192445025,0.1,0.8,96,0
FRSM,5/24/12,0.861458333,0.101949205,0.5,1.1,96,0
FRSM,5/25/12,0.790625,0.0563413,0.7,1,96,0
FRSM,5/26/12,0.222916667,0.155244572,0,0.8,96,0